ONEWEB-0131, 47277

Orbit data source: Space-Track

ONEWEB-0131, 47277 is a payload satellite owned by One Web (UK) in LEO that was launched on Fri, 18 Dec 2020 UTC via a SOYUZ-2-1B launch vehicle from the Vostochny Cosmodrome (VOSTO). Payload-class satellites include a variety of spacecraft equipped with specific instruments for various scientific and technological missions. These include communications satellites like Starlink; space stations such as the ISS; scientific satellites like the Hubble; Earth observation satellites from companies like Planet Labs, Umbra, and HawkEye 360; GPS; miniature CubeSats for education and research; and military/defense satellites.

Loading next visibility...
Identifier
47277, 2020-100V
Orbit
LEO
Country
Flag of UKUK
Related business
Manufacturer
One Web
Mission
Operational Commercial Communications
Bus & Motor
ARROW, Unknown motor
Mass
148 kg wet, ~140 kg dry
Launch date (UTC)
2020-12-18 (5 years ago)
Launch vehicle
SOYUZ-2-1B
Launch site
Vostochny Cosmodrome (VOSTO)
Object type
Payload
Rocket body
Debris
Shape & HBR
Trap Box + 2 Pan, 6.7 m
Radar Cross Section
3.464 m², Large (>1 m²)

Expand to show TLE details & history
Last TLE update: 8 hours ago

TLE from 8 hours ago
0 ONEWEB-0131
1 47277U 20100V   26095.22750417 -.00000241  00000-0 -70663-3 0  9994
2 47277  87.9006   5.1651 0001836  77.8555 282.2779 13.12440820255118
Epoch: 2026-04-05T05:27Z
TLE epoch observation values (Epoch: 2026-04-05T05:27:36.360Z)
Latitude
-0.00003°
Longitude
89.72765°
Altitude
1,216.326 km
Speed
7.246 km/s
True Right ascension
00h 20m 39s
True Declination
0° 00' 00"
Sunlit
Object was in daylight at epoch
Visualization orbit readout
Latitude
Unknown
Longitude
Unknown
Altitude
Unknown
Speed
Unknown
Apparent Right ascension
Unknown
Apparent Declination
Unknown
Sunlit
N/A
Visualization observer readout
Local Sidereal Time
18:59:23
Azimuth
Unknown
Elevation
Unknown
Doppler factor
Unknown
Orbital elements
Apogee altitude
1,212.242 km
Perigee altitude
1,209.455 km
Semi-major axis
7,588.985 km
Eccentricity
0.00018
Inclination
87.9006°
RAAN
5.1651°
Arg. of periapsis
77.8555°
True anomaly
282.25734°
Mean anomaly
282.2779°
Eccentric anomaly
282.26762°
Mean motion
3.28298 °/min
Orbital period
109.66 mins
BSTAR
-0.00070663
Loading maneuver chart data...
Computing Atmospheric mass density...
Loading historical data...
Loading historical data...
Loading historical data...
Loading historical data...
Loading historical data...
Loading historical data...
Loading historical data...

Documentation

Showing up to 5 results
|